| time (UTC) | temp F | wind direction | speed knots | gust knots | rain 1hr in | rain 24hr in | rain mn in | humidity % | barometer mb |
| 20260905124549 | 51 | 266 | 1.7 | 3.5 | 0.00 | 0.00 | 0.00 | 94 | 1018.1 |
| 20260905124045 | 51 | 270 | 1.7 | 2.6 | 0.00 | 0.00 | 0.00 | 94 | 1017.9 |
| 20260905123540 | 51 | 341 | 1.7 | 1.7 | 0.00 | 0.00 | 0.00 | 93 | 1018.0 |
| 20260905123037 | 51 | 11 | 2.6 | 3.5 | 0.00 | 0.00 | 0.00 | 93 | 1017.8 |
| 20260905122536 | 51 | 185 | 1.7 | 4.3 | 0.00 | 0.00 | 0.00 | 93 | 1017.7 |
| 20260905122031 | 51 | 90 | 0.0 | 2.6 | 0.00 | 0.00 | 0.00 | 94 | 1017.7 |
| 20260905121526 | 51 | 204 | 1.7 | 1.7 | 0.00 | 0.00 | 0.00 | 94 | 1018.0 |
| 20260905121021 | 51 | 255 | 0.9 | 2.6 | 0.00 | 0.00 | 0.00 | 94 | 1018.3 |
| 20260905120515 | 51 | 75 | 0.0 | 0.9 | 0.00 | 0.00 | 0.00 | 93 | 1018.2 |
| 20260905120010 | 51 | 54 | 0.9 | 2.6 | 0.00 | 0.00 | 0.00 | 93 | 1018.0 |
| 20260905115509 | 51 | 60 | 1.7 | 2.6 | 0.00 | 0.00 | 0.00 | 93 | 1017.8 |
| 20260905115004 | 51 | 106 | 0.9 | 5.2 | 0.00 | 0.00 | 0.00 | 94 | 1017.8 |
| 20260905114504 | 51 | 106 | 4.3 | 5.2 | 0.00 | 0.00 | 0.00 | 95 | 1017.6 |
| 20260905114003 | 51 | 28 | 1.7 | 2.6 | 0.00 | 0.00 | 0.00 | 95 | 1017.9 |
| 20260905113458 | 51 | 83 | 0.0 | 1.7 | 0.00 | 0.00 | 0.00 | 95 | 1018.1 |
| 20260905112953 | 51 | 103 | 1.7 | 1.7 | 0.00 | 0.00 | 0.00 | 95 | 1018.2 |
| 20260905112448 | 51 | 26 | 0.0 | 2.6 | 0.00 | 0.00 | 0.00 | 95 | 1017.9 |
| 20260905111943 | 51 | 106 | 0.0 | 1.7 | 0.00 | 0.00 | 0.00 | 95 | 1017.6 |
| 20260905111438 | 51 | 292 | 1.7 | 1.7 | 0.00 | 0.00 | 0.00 | 95 | 1017.7 |
| 20260905110937 | 51 | 29 | 1.7 | 2.6 | 0.00 | 0.00 | 0.00 | 95 | 1017.4 |
| 20260905110431 | 51 | 38 | 1.7 | 2.6 | 0.00 | 0.00 | 0.00 | 95 | 1017.8 |
| 20260905105931 | 51 | 96 | 0.9 | 1.7 | 0.00 | 0.00 | 0.00 | 94 | 1018.3 |
| 20260905105426 | 51 | 84 | 1.7 | 2.6 | 0.00 | 0.00 | 0.00 | 94 | 1017.8 |
| 20260905104925 | 51 | 109 | 0.0 | 2.6 | 0.00 | 0.00 | 0.00 | 94 | 1018.2 |
| 20260905104421 | 51 | 227 | 2.6 | 5.2 | 0.00 | 0.00 | 0.00 | 94 | 1017.9 |
| 20260905103916 | 51 | 264 | 2.6 | 7.0 | 0.00 | 0.00 | 0.00 | 95 | 1017.4 |
| 20260905103412 | 51 | 209 | 3.5 | 4.3 | 0.00 | 0.00 | 0.00 | 95 | 1017.0 |
| 20260905102907 | 51 | 25 | 3.5 | 7.8 | 0.00 | 0.00 | 0.00 | 95 | 1016.7 |
| 20260905102404 | 51 | 67 | 1.7 | 4.3 | 0.00 | 0.00 | 0.00 | 95 | 1017.4 |
| 20260905101858 | 51 | 109 | 0.0 | 0.9 | 0.00 | 0.00 | 0.00 | 95 | 1017.7 |
| 20260905101356 | 51 | 61 | 1.7 | 2.6 | 0.00 | 0.00 | 0.00 | 95 | 1018.2 |
| 20260905100851 | 51 | 98 | 1.7 | 3.5 | 0.00 | 0.00 | 0.00 | 95 | 1018.0 |
| 20260905100347 | 51 | 270 | 1.7 | 5.2 | 0.00 | 0.00 | 0.00 | 95 | 1018.3 |
| 20260905095846 | 51 | 285 | 4.3 | 5.2 | 0.00 | 0.00 | 0.00 | 95 | 1018.5 |
| 20260905095341 | 51 | 226 | 3.5 | 3.5 | 0.00 | 0.00 | 0.00 | 95 | 1018.1 |
| 20260905094836 | 50 | 105 | 4.3 | 5.2 | 0.00 | 0.00 | 0.00 | 95 | 1017.2 |
| 20260905094331 | 51 | 59 | 2.6 | 3.5 | 0.00 | 0.00 | 0.00 | 95 | 1017.4 |
| 20260905093830 | 51 | 57 | 1.7 | 2.6 | 0.00 | 0.00 | 0.00 | 95 | 1018.0 |
| 20260905093326 | 51 | 257 | 1.7 | 2.6 | 0.00 | 0.00 | 0.00 | 95 | 1017.9 |
| 20260905092822 | 51 | 197 | 1.7 | 2.6 | 0.00 | 0.00 | 0.00 | 95 | 1018.1 |
| 20260905092321 | 51 | 192 | 2.6 | 4.3 | 0.00 | 0.00 | 0.00 | 95 | 1018.0 |
| 20260905091817 | 51 | 68 | 2.6 | 2.6 | 0.00 | 0.00 | 0.00 | 95 | 1017.2 |
| 20260905091316 | 51 | 185 | 0.0 | 1.7 | 0.00 | 0.00 | 0.00 | 94 | 1017.5 |
| 20260905090814 | 51 | 68 | 1.7 | 2.6 | 0.00 | 0.00 | 0.00 | 94 | 1017.4 |
| 20260905090311 | 51 | 265 | 1.7 | 3.5 | 0.00 | 0.00 | 0.00 | 95 | 1018.0 |
| 20260905085805 | 51 | 99 | 1.7 | 2.6 | 0.00 | 0.00 | 0.00 | 94 | 1017.4 |
| 20260905085306 | 51 | 114 | 0.9 | 5.2 | 0.00 | 0.00 | 0.00 | 94 | 1017.2 |
| 20260905084800 | 51 | 68 | 2.6 | 2.6 | 0.00 | 0.00 | 0.00 | 94 | 1017.7 |
| 20260905084259 | 51 | 173 | 0.0 | 1.7 | 0.00 | 0.00 | 0.00 | 94 | 1018.6 |
| 20260905083755 | 51 | 124 | 0.0 | 1.7 | 0.00 | 0.00 | 0.00 | 94 | 1017.9 |
| 20260905083250 | 50 | 257 | 0.0 | 2.6 | 0.00 | 0.00 | 0.00 | 94 | 1017.9 |
| 20260905082745 | 50 | 108 | 4.3 | 4.3 | 0.00 | 0.00 | 0.00 | 94 | 1017.8 |
| 20260905082242 | 50 | 165 | 0.0 | 1.7 | 0.00 | 0.00 | 0.00 | 94 | 1018.0 |
| 20260905081736 | 50 | 75 | 1.7 | 2.6 | 0.00 | 0.00 | 0.00 | 94 | 1017.7 |
| 20260905081231 | 51 | 90 | 0.0 | 4.3 | 0.00 | 0.00 | 0.00 | 94 | 1018.0 |
| 20260905080731 | 51 | 170 | 1.7 | 2.6 | 0.00 | 0.00 | 0.00 | 94 | 1018.1 |
| 20260905080231 | 51 | 248 | 2.6 | 2.6 | 0.00 | 0.00 | 0.00 | 93 | 1017.7 |
| 20260905075730 | 51 | 31 | 2.6 | 2.6 | 0.00 | 0.00 | 0.00 | 92 | 1017.6 |
| 20260905075229 | 51 | 100 | 1.7 | 4.3 | 0.00 | 0.00 | 0.00 | 92 | 1018.2 |
| 20260905074728 | 51 | 105 | 4.3 | 6.1 | 0.00 | 0.00 | 0.00 | 92 | 1017.9 |
| 20260905074224 | 51 | 120 | 2.6 | 6.1 | 0.00 | 0.00 | 0.00 | 93 | 1017.7 |
| 20260905073719 | 51 | 90 | 0.9 | 1.7 | 0.00 | 0.00 | 0.00 | 93 | 1017.6 |
| 20260905073215 | 51 | 129 | 2.6 | 5.2 | 0.00 | 0.00 | 0.00 | 94 | 1017.7 |
| 20260905072714 | 51 | 126 | 0.0 | 2.6 | 0.00 | 0.00 | 0.00 | 94 | 1017.4 |
| 20260905072210 | 51 | 123 | 0.0 | 0.9 | 0.00 | 0.00 | 0.00 | 93 | 1017.7 |
| 20260905071706 | 51 | 98 | 0.0 | 0.9 | 0.00 | 0.00 | 0.00 | 93 | 1017.8 |
| 20260905071202 | 51 | 103 | 2.6 | 3.5 | 0.00 | 0.00 | 0.00 | 93 | 1017.6 |
| 20260905070656 | 51 | 110 | 3.5 | 5.2 | 0.00 | 0.00 | 0.00 | 93 | 1017.5 |
| 20260905070153 | 51 | 98 | 2.6 | 3.5 | 0.00 | 0.00 | 0.00 | 93 | 1017.7 |
| 20260905065651 | 50 | 99 | 2.6 | 2.6 | 0.00 | 0.00 | 0.00 | 93 | 1017.8 |
| 20260905065145 | 51 | 114 | 0.0 | 1.7 | 0.00 | 0.00 | 0.00 | 93 | 1017.5 |
| 20260905064641 | 51 | 103 | 1.7 | 4.3 | 0.00 | 0.00 | 0.00 | 94 | 1017.9 |
| 20260905064137 | 51 | 85 | 1.7 | 2.6 | 0.00 | 0.00 | 0.00 | 94 | 1017.9 |
| 20260905063635 | 51 | 106 | 0.9 | 1.7 | 0.00 | 0.00 | 0.00 | 93 | 1017.9 |
| 20260905063132 | 51 | 135 | 0.0 | 1.7 | 0.00 | 0.00 | 0.00 | 93 | 1017.8 |
| 20260905062627 | 51 | 176 | 0.0 | 2.6 | 0.00 | 0.00 | 0.00 | 92 | 1017.8 |
| 20260905062126 | 51 | 285 | 0.0 | 1.7 | 0.00 | 0.00 | 0.00 | 92 | 1017.7 |
| 20260905061620 | 50 | 252 | 1.7 | 3.5 | 0.00 | 0.00 | 0.00 | 92 | 1017.9 |
| 20260905061115 | 50 | 131 | 2.6 | 7.8 | 0.00 | 0.00 | 0.00 | 92 | 1017.7 |
| 20260905060610 | 51 | 102 | 4.3 | 7.0 | 0.00 | 0.00 | 0.00 | 92 | 1017.6 |
| 20260905060107 | 51 | 122 | 4.3 | 6.1 | 0.00 | 0.00 | 0.00 | 91 | 1017.2 |
| 20260905055605 | 51 | 81 | 5.2 | 7.8 | 0.00 | 0.20 | 0.20 | 91 | 1017.6 |
| 20260905055100 | 51 | 105 | 3.5 | 7.8 | 0.00 | 0.20 | 0.20 | 92 | 1017.5 |
| 20260905054556 | 50 | 97 | 4.3 | 8.7 | 0.00 | 0.20 | 0.20 | 93 | 1017.4 |
| 20260905054051 | 50 | 76 | 5.2 | 7.8 | 0.00 | 0.20 | 0.20 | 93 | 1017.5 |
| 20260905053550 | 50 | 119 | 1.7 | 6.1 | 0.00 | 0.20 | 0.20 | 93 | 1017.4 |
| 20260905053046 | 50 | 92 | 5.2 | 6.1 | 0.00 | 0.20 | 0.20 | 93 | 1017.6 |
| 20260905052545 | 50 | 103 | 6.1 | 7.0 | 0.00 | 0.20 | 0.20 | 92 | 1017.5 |
| 20260905052040 | 50 | 113 | 3.5 | 7.0 | 0.00 | 0.20 | 0.20 | 93 | 1017.5 |
| 20260905051536 | 50 | 100 | 3.5 | 6.1 | 0.00 | 0.20 | 0.20 | 93 | 1017.1 |
| 20260905051032 | 50 | 96 | 4.3 | 7.0 | 0.00 | 0.20 | 0.20 | 92 | 1017.5 |
| 20260905050528 | 51 | 110 | 5.2 | 8.7 | 0.00 | 0.20 | 0.20 | 92 | 1017.7 |
| 20260905050025 | 51 | 93 | 2.6 | 6.1 | 0.00 | 0.20 | 0.20 | 92 | 1017.9 |
| 20260905045519 | 51 | 98 | 1.7 | 7.0 | 0.00 | 0.20 | 0.20 | 91 | 1017.8 |
| 20260905045015 | 51 | 107 | 3.5 | 5.2 | 0.00 | 0.20 | 0.20 | 91 | 1017.8 |
| 20260905044515 | 51 | 111 | 4.3 | 7.0 | 0.00 | 0.20 | 0.20 | 91 | 1017.7 |
| 20260905044015 | 51 | 112 | 1.7 | 4.3 | 0.00 | 0.20 | 0.20 | 91 | 1017.9 |
| 20260905043513 | 51 | 117 | 2.6 | 7.8 | 0.00 | 0.20 | 0.20 | 91 | 1017.7 |
| 20260905043004 | 51 | 103 | 2.6 | 7.0 | 0.00 | 0.20 | 0.20 | 91 | 1017.7 |
| 20260905042502 | 51 | 83 | 2.6 | 3.5 | 0.00 | 0.20 | 0.20 | 92 | 1017.7 |
| 20260905041958 | 52 | 90 | 1.7 | 2.6 | 0.00 | 0.20 | 0.20 | 91 | 1017.7 |
| 20260905041454 | 52 | 172 | 0.0 | 1.7 | 0.00 | 0.20 | 0.20 | 90 | 1017.5 |
| 20260905040949 | 52 | 105 | 0.9 | 1.7 | 0.00 | 0.20 | 0.20 | 87 | 1017.4 |
| 20260905040448 | 52 | 270 | 0.0 | 1.7 | 0.00 | 0.20 | 0.20 | 87 | 1017.2 |
| 20260905035947 | 52 | 152 | 0.0 | 5.2 | 0.00 | 0.20 | 0.20 | 88 | 1017.2 |
| 20260905035442 | 52 | 103 | 3.5 | 7.8 | 0.00 | 0.20 | 0.20 | 88 | 1017.4 |
| 20260905034940 | 52 | 102 | 3.5 | 11.3 | 0.00 | 0.20 | 0.20 | 90 | 1017.5 |
| 20260905034435 | 52 | 180 | 0.0 | 2.6 | 0.00 | 0.20 | 0.20 | 91 | 1017.5 |
| 20260905033933 | 52 | 41 | 1.7 | 2.6 | 0.00 | 0.20 | 0.20 | 91 | 1017.8 |
| 20260905033428 | 52 | 142 | 0.0 | 2.6 | 0.00 | 0.20 | 0.20 | 92 | 1018.0 |
| 20260905032928 | 52 | 131 | 4.3 | 5.2 | 0.00 | 0.20 | 0.20 | 92 | 1017.7 |
| 20260905032424 | 52 | 131 | 4.3 | 8.7 | 0.00 | 0.20 | 0.20 | 93 | 1017.6 |
| 20260905031919 | 52 | 118 | 6.1 | 11.3 | 0.00 | 0.20 | 0.20 | 92 | 1017.7 |
| 20260905031415 | 52 | 118 | 5.2 | 8.7 | 0.00 | 0.20 | 0.20 | 92 | 1017.7 |
| 20260905030909 | 52 | 116 | 7.8 | 10.4 | 0.00 | 0.20 | 0.20 | 93 | 1017.7 |
| 20260905030400 | 52 | 113 | 6.1 | 11.3 | 0.00 | 0.20 | 0.20 | 93 | 1017.6 |
| 20260905025858 | 52 | 110 | 5.2 | 7.8 | 0.00 | 0.20 | 0.20 | 93 | 1017.7 |
| 20260905025354 | 52 | 115 | 8.7 | 10.4 | 0.00 | 0.20 | 0.20 | 94 | 1018.1 |
| 20260905024850 | 52 | 111 | 6.1 | 8.7 | 0.00 | 0.20 | 0.20 | 94 | 1018.0 |
| 20260905024350 | 52 | 115 | 7.0 | 10.4 | 0.02 | 0.20 | 0.20 | 94 | 1018.2 |
| 20260905023846 | 52 | 126 | 4.3 | 8.7 | 0.02 | 0.20 | 0.20 | 93 | 1018.0 |
| 20260905023341 | 52 | 114 | 6.1 | 11.3 | 0.02 | 0.20 | 0.20 | 93 | 1018.0 |
| 20260905022839 | 53 | 127 | 3.5 | 10.4 | 0.05 | 0.20 | 0.20 | 92 | 1017.9 |
| 20260905022336 | 53 | 127 | 7.0 | 10.4 | 0.02 | 0.20 | 0.20 | 91 | 1017.8 |
| 20260905021830 | 53 | 103 | 5.2 | 10.4 | 0.02 | 0.19 | 0.19 | 91 | 1017.8 |
| 20260905021325 | 53 | 125 | 4.3 | 6.1 | 0.02 | 0.19 | 0.19 | 92 | 1017.8 |
| 20260905020820 | 53 | 128 | 3.5 | 7.0 | 0.00 | 0.19 | 0.19 | 91 | 1017.9 |
| 20260905020315 | 53 | 122 | 4.3 | 8.7 | 0.00 | 0.19 | 0.19 | 91 | 1017.6 |
| 20260905015814 | 54 | 109 | 3.5 | 3.5 | 0.00 | 0.19 | 0.19 | 91 | 1017.8 |
| 20260905015314 | 54 | 82 | 0.0 | 0.9 | 0.00 | 0.19 | 0.19 | 90 | 1017.7 |
| 20260905014813 | 54 | 116 | 3.5 | 4.3 | 0.00 | 0.19 | 0.19 | 90 | 1017.2 |
| 20260905014309 | 54 | 112 | 4.3 | 4.3 | 0.00 | 0.19 | 0.19 | 92 | 1017.2 |
| 20260905013804 | 54 | 95 | 1.7 | 1.7 | 0.00 | 0.19 | 0.19 | 91 | 1017.1 |
| 20260905013300 | 54 | 90 | 0.9 | 0.9 | 0.00 | 0.19 | 0.19 | 91 | 1017.0 |
| 20260905012755 | 54 | 99 | 0.0 | 0.9 | 0.02 | 0.19 | 0.19 | 90 | 1016.8 |
| 20260905012251 | 54 | 99 | 0.0 | 1.7 | 0.07 | 0.19 | 0.19 | 89 | 1016.6 |
| 20260905011747 | 55 | 124 | 1.7 | 2.6 | 0.17 | 0.18 | 0.18 | 86 | 1016.5 |
| 20260905011243 | 56 | 61 | 3.5 | 3.5 | 0.19 | 0.18 | 0.18 | 82 | 1016.5 |
| 20260905010737 | 57 | 315 | 1.7 | 5.2 | 0.17 | 0.16 | 0.16 | 79 | 1017.1 |
| 20260905010232 | 59 | 246 | 8.7 | 9.6 | 0.14 | 0.14 | 0.14 | 72 | 1017.5 |
| 20260905005729 | 61 | 260 | 6.1 | 7.8 | 0.05 | 0.13 | 0.13 | 62 | 1016.9 |
| 20260905005225 | 62 | 256 | 4.3 | 8.7 | 0.00 | 0.12 | 0.12 | 56 | 1016.1 |
| 20260905004719 | 62 | 250 | 3.5 | 6.1 | 0.00 | 0.12 | 0.12 | 55 | 1015.7 |
| 20260905004214 | 62 | 323 | 4.3 | 5.2 | 0.00 | 0.12 | 0.12 | 53 | 1015.4 |
| 20260905003714 | 62 | 292 | 2.6 | 5.2 | 0.00 | 0.12 | 0.12 | 54 | 1015.0 |
| 20260905003210 | 63 | 266 | 2.6 | 6.1 | 0.00 | 0.12 | 0.12 | 53 | 1014.9 |
| 20260905002706 | 63 | 291 | 0.0 | 5.2 | 0.00 | 0.12 | 0.12 | 53 | 1014.9 |
| 20260905002205 | 63 | 315 | 2.6 | 5.2 | 0.00 | 0.12 | 0.12 | 52 | 1015.0 |
| 20260905001701 | 63 | 294 | 0.0 | 5.2 | 0.00 | 0.12 | 0.12 | 54 | 1015.4 |
| 20260905001200 | 63 | 287 | 2.6 | 7.0 | 0.00 | 0.12 | 0.12 | 53 | 1015.0 |
| 20260905000655 | 63 | 253 | 3.5 | 6.1 | 0.00 | 0.12 | 0.12 | 53 | 1014.9 |
| 20260905000151 | 63 | 296 | 2.6 | 7.8 | 0.00 | 0.12 | 0.12 | 53 | 1014.9 |
| 20260904235651 | 63 | 263 | 4.3 | 9.6 | 0.00 | 0.12 | 0.12 | 52 | 1014.9 |
| 20260904235150 | 63 | 268 | 7.8 | 12.2 | 0.00 | 0.12 | 0.12 | 52 | 1014.8 |
| 20260904234646 | 64 | 323 | 1.7 | 8.7 | 0.00 | 0.12 | 0.12 | 52 | 1014.9 |
| 20260904234141 | 64 | 275 | 1.7 | 7.0 | 0.00 | 0.12 | 0.12 | 50 | 1015.1 |
| 20260904233637 | 64 | 303 | 2.6 | 7.0 | 0.00 | 0.12 | 0.12 | 51 | 1014.8 |
| 20260904233133 | 64 | 282 | 4.3 | 10.4 | 0.00 | 0.12 | 0.12 | 50 | 1014.6 |
| 20260904232629 | 65 | 281 | 3.5 | 7.8 | 0.00 | 0.12 | 0.12 | 50 | 1014.9 |
| 20260904232125 | 65 | 347 | 2.6 | 5.2 | 0.00 | 0.12 | 0.12 | 48 | 1014.6 |
| 20260904231620 | 66 | 334 | 2.6 | 6.1 | 0.00 | 0.12 | 0.12 | 47 | 1014.6 |
| 20260904231115 | 68 | 257 | 1.7 | 3.5 | 0.00 | 0.12 | 0.12 | 48 | 1014.5 |
| 20260904230614 | 67 | 254 | 2.6 | 9.6 | 0.00 | 0.12 | 0.12 | 47 | 1014.6 |
| 20260904230110 | 67 | 261 | 3.5 | 7.8 | 0.00 | 0.12 | 0.12 | 48 | 1014.6 |
| 20260904225607 | 67 | 275 | 0.0 | 6.1 | 0.00 | 0.12 | 0.12 | 48 | 1014.6 |
| 20260904225103 | 66 | 270 | 0.0 | 8.7 | 0.00 | 0.12 | 0.12 | 49 | 1014.6 |
| 20260904224557 | 66 | 274 | 4.3 | 5.2 | 0.00 | 0.12 | 0.12 | 50 | 1014.8 |
| 20260904224052 | 65 | 280 | 4.3 | 5.2 | 0.00 | 0.12 | 0.12 | 50 | 1014.5 |
| 20260904223551 | 65 | 20 | 2.6 | 3.5 | 0.00 | 0.12 | 0.12 | 50 | 1015.1 |
| 20260904223047 | 66 | 262 | 4.3 | 5.2 | 0.00 | 0.12 | 0.12 | 49 | 1014.9 |
| 20260904222543 | 65 | 291 | 4.3 | 7.0 | 0.00 | 0.12 | 0.12 | 51 | 1014.6 |
| 20260904222038 | 64 | 278 | 3.5 | 9.6 | 0.00 | 0.12 | 0.12 | 52 | 1014.8 |
| 20260904221532 | 64 | 270 | 2.6 | 8.7 | 0.00 | 0.12 | 0.12 | 52 | 1014.7 |
| 20260904221027 | 64 | 301 | 3.5 | 10.4 | 0.00 | 0.12 | 0.12 | 53 | 1014.7 |
| 20260904220526 | 65 | 298 | 5.2 | 9.6 | 0.00 | 0.12 | 0.12 | 51 | 1014.5 |
| 20260904220023 | 65 | 328 | 1.7 | 3.5 | 0.00 | 0.12 | 0.12 | 50 | 1014.1 |
| 20260904215522 | 65 | 227 | 2.6 | 8.7 | 0.00 | 0.12 | 0.12 | 51 | 1014.6 |
| 20260904215018 | 65 | 279 | 3.5 | 11.3 | 0.00 | 0.12 | 0.12 | 51 | 1014.6 |
| 20260904214513 | 66 | 279 | 2.6 | 4.3 | 0.00 | 0.12 | 0.12 | 50 | 1014.5 |
| 20260904214009 | 66 | 285 | 4.3 | 7.8 | 0.00 | 0.12 | 0.12 | 50 | 1014.4 |
| 20260904213506 | 66 | 310 | 3.5 | 6.1 | 0.00 | 0.12 | 0.12 | 51 | 1014.2 |
| 20260904213004 | 66 | 324 | 2.6 | 4.3 | 0.00 | 0.12 | 0.12 | 53 | 1014.5 |
| 20260904212502 | 66 | 311 | 1.7 | 7.0 | 0.00 | 0.12 | 0.12 | 51 | 1014.7 |
| 20260904211958 | 66 | 331 | 4.3 | 6.1 | 0.00 | 0.12 | 0.12 | 53 | 1014.6 |
| 20260904211452 | 64 | 274 | 4.3 | 9.6 | 0.00 | 0.12 | 0.12 | 55 | 1014.5 |
| 20260904210948 | 65 | 270 | 3.5 | 7.0 | 0.00 | 0.12 | 0.12 | 53 | 1014.6 |
| 20260904210447 | 66 | 335 | 5.2 | 7.0 | 0.00 | 0.12 | 0.12 | 53 | 1014.6 |
| 20260904205943 | 66 | 272 | 4.3 | 6.1 | 0.00 | 0.12 | 0.12 | 53 | 1014.8 |
| 20260904205438 | 65 | 281 | 5.2 | 7.8 | 0.00 | 0.12 | 0.12 | 53 | 1014.7 |
| 20260904204935 | 65 | 270 | 4.3 | 5.2 | 0.00 | 0.12 | 0.12 | 56 | 1014.8 |
| 20260904204431 | 65 | 0 | 2.6 | 3.5 | 0.00 | 0.12 | 0.12 | 54 | 1014.8 |
| 20260904203927 | 66 | 329 | 2.6 | 4.3 | 0.00 | 0.12 | 0.12 | 55 | 1014.8 |
| 20260904203423 | 64 | 180 | 0.0 | 4.3 | 0.00 | 0.12 | 0.12 | 55 | 1014.9 |
| 20260904202918 | 63 | 349 | 4.3 | 5.2 | 0.00 | 0.12 | 0.12 | 56 | 1014.9 |
| 20260904202414 | 62 | 293 | 2.6 | 4.3 | 0.00 | 0.12 | 0.12 | 57 | 1014.9 |
| 20260904201910 | 64 | 4 | 1.7 | 4.3 | 0.00 | 0.12 | 0.12 | 56 | 1014.9 |
| 20260904201405 | 64 | 5 | 2.6 | 3.5 | 0.00 | 0.12 | 0.12 | 56 | 1014.9 |
| 20260904200901 | 63 | 143 | 1.7 | 4.3 | 0.00 | 0.12 | 0.12 | 57 | 1014.8 |
| 20260904200359 | 63 | 321 | 2.6 | 4.3 | 0.00 | 0.12 | 0.12 | 58 | 1015.0 |
| 20260904195854 | 63 | 290 | 1.7 | 4.3 | 0.00 | 0.12 | 0.12 | 58 | 1015.1 |
| 20260904195352 | 63 | 255 | 2.6 | 5.2 | 0.00 | 0.12 | 0.12 | 62 | 1015.2 |
| 20260904194847 | 63 | 261 | 0.0 | 4.3 | 0.00 | 0.12 | 0.12 | 58 | 1015.0 |
| 20260904194346 | 62 | 254 | 0.9 | 4.3 | 0.00 | 0.12 | 0.12 | 62 | 1014.8 |
| 20260904193841 | 61 | 319 | 3.5 | 7.8 | 0.00 | 0.12 | 0.12 | 60 | 1014.9 |
| 20260904193337 | 62 | 337 | 4.3 | 5.2 | 0.00 | 0.12 | 0.12 | 61 | 1015.1 |
| 20260904192832 | 62 | 6 | 2.6 | 5.2 | 0.00 | 0.12 | 0.12 | 65 | 1015.1 |
| 20260904192327 | 63 | 73 | 6.1 | 6.1 | 0.00 | 0.12 | 0.12 | 63 | 1015.1 |
| 20260904191824 | 62 | 297 | 0.0 | 5.2 | 0.00 | 0.12 | 0.12 | 61 | 1015.1 |
| 20260904191320 | 61 | 140 | 0.0 | 4.3 | 0.00 | 0.12 | 0.12 | 62 | 1015.4 |
| 20260904190817 | 60 | 327 | 1.7 | 4.3 | 0.00 | 0.12 | 0.12 | 65 | 1015.4 |
| 20260904190312 | 62 | 210 | 0.0 | 5.2 | 0.00 | 0.12 | 0.12 | 62 | 1015.2 |
| 20260904185808 | 61 | 294 | 2.6 | 3.5 | 0.00 | 0.12 | 0.12 | 66 | 1015.5 |
| 20260904185306 | 60 | 349 | 1.7 | 3.5 | 0.00 | 0.12 | 0.12 | 65 | 1015.5 |
| 20260904184803 | 59 | 334 | 1.7 | 1.7 | 0.00 | 0.12 | 0.12 | 67 | 1015.4 |
| 20260904184258 | 59 | 348 | 3.5 | 3.5 | 0.00 | 0.12 | 0.12 | 70 | 1015.6 |
| 20260904183753 | 59 | 74 | 0.9 | 2.6 | 0.00 | 0.12 | 0.12 | 69 | 1015.4 |
| 20260904183248 | 59 | 8 | 1.7 | 5.2 | 0.00 | 0.12 | 0.12 | 68 | 1015.6 |
| 20260904182743 | 59 | 0 | 3.5 | 4.3 | 0.00 | 0.12 | 0.12 | 67 | 1015.4 |
| 20260904182238 | 60 | 266 | 2.6 | 3.5 | 0.00 | 0.12 | 0.12 | 66 | 1015.2 |
| 20260904181734 | 61 | 305 | 2.6 | 4.3 | 0.00 | 0.12 | 0.12 | 67 | 1015.5 |
| 20260904181233 | 60 | 54 | 0.0 | 3.5 | 0.00 | 0.12 | 0.12 | 66 | 1015.4 |
| 20260904180729 | 59 | 300 | 1.7 | 3.5 | 0.00 | 0.12 | 0.12 | 68 | 1015.4 |
| 20260904180224 | 58 | 270 | 1.7 | 2.6 | 0.00 | 0.12 | 0.12 | 70 | 1015.7 |
| 20260904175723 | 58 | 315 | 1.7 | 4.3 | 0.00 | 0.12 | 0.12 | 69 | 1015.5 |
| 20260904175222 | 57 | 0 | 0.9 | 2.6 | 0.00 | 0.12 | 0.12 | 70 | 1015.5 |
| 20260904174717 | 57 | 281 | 1.7 | 3.5 | 0.00 | 0.12 | 0.12 | 74 | 1015.7 |
| 20260904174213 | 57 | 264 | 1.7 | 3.5 | 0.00 | 0.12 | 0.12 | 75 | 1015.5 |
| 20260904173708 | 58 | 329 | 3.5 | 4.3 | 0.00 | 0.12 | 0.12 | 74 | 1015.5 |
| 20260904173203 | 57 | 285 | 1.7 | 2.6 | 0.00 | 0.12 | 0.12 | 75 | 1015.5 |
| 20260904172700 | 57 | 15 | 1.7 | 3.5 | 0.00 | 0.12 | 0.12 | 77 | 1015.6 |
| 20260904172159 | 57 | 279 | 2.6 | 4.3 | 0.00 | 0.12 | 0.12 | 77 | 1015.5 |
| 20260904171655 | 56 | 254 | 0.0 | 3.5 | 0.00 | 0.12 | 0.12 | 80 | 1015.7 |
| 20260904171154 | 56 | 198 | 0.0 | 1.7 | 0.00 | 0.12 | 0.12 | 79 | 1015.2 |
| 20260904170651 | 56 | 3 | 2.6 | 2.6 | 0.00 | 0.12 | 0.12 | 79 | 1015.5 |
| 20260904170147 | 56 | 154 | 0.9 | 1.7 | 0.00 | 0.12 | 0.12 | 83 | 1015.4 |
| 20260904165645 | 55 | 45 | 2.6 | 2.6 | 0.00 | 0.12 | 0.12 | 84 | 1015.4 |
| 20260904165144 | 55 | 258 | 0.9 | 2.6 | 0.00 | 0.12 | 0.12 | 82 | 1015.5 |
| 20260904164640 | 54 | 90 | 0.0 | 2.6 | 0.00 | 0.12 | 0.12 | 84 | 1015.2 |
| 20260904164135 | 55 | 282 | 2.6 | 3.5 | 0.00 | 0.12 | 0.12 | 83 | 1015.2 |
| 20260904163631 | 54 | 45 | 0.0 | 3.5 | 0.00 | 0.12 | 0.12 | 85 | 1015.0 |
| 20260904163126 | 55 | 60 | 0.9 | 3.5 | 0.00 | 0.12 | 0.12 | 85 | 1014.9 |
| 20260904162625 | 53 | 127 | 0.0 | 2.6 | 0.00 | 0.12 | 0.12 | 88 | 1014.9 |
| 20260904162120 | 53 | 29 | 0.0 | 2.6 | 0.00 | 0.12 | 0.12 | 89 | 1014.9 |
| 20260904161616 | 53 | 8 | 0.0 | 1.7 | 0.00 | 0.12 | 0.12 | 90 | 1014.9 |
| 20260904161111 | 52 | 36 | 1.7 | 2.6 | 0.00 | 0.12 | 0.12 | 90 | 1014.7 |
| 20260904160606 | 51 | 26 | 1.7 | 1.7 | 0.00 | 0.12 | 0.12 | 89 | 1014.9 |
| 20260904155602 | 51 | 15 | 1.7 | 2.6 | 0.00 | 0.12 | 0.12 | 91 | 1014.8 |
| 20260904155056 | 51 | 63 | 1.7 | 1.7 | 0.00 | 0.12 | 0.12 | 91 | 1014.7 |
| 20260904154550 | 51 | 24 | 1.7 | 2.6 | 0.00 | 0.12 | 0.12 | 92 | 1014.8 |
| 20260904154045 | 51 | 99 | 1.7 | 2.6 | 0.00 | 0.12 | 0.12 | 92 | 1014.8 |
| 20260904153544 | 50 | 203 | 0.0 | 0.9 | 0.00 | 0.12 | 0.12 | 92 | 1014.7 |
| 20260904153041 | 50 | 206 | 0.0 | 2.6 | 0.00 | 0.12 | 0.12 | 93 | 1014.8 |
| 20260904152536 | 50 | 246 | 0.0 | 1.7 | 0.00 | 0.12 | 0.12 | 93 | 1014.4 |
| 20260904152031 | 50 | 331 | 0.0 | 4.3 | 0.00 | 0.12 | 0.12 | 93 | 1014.2 |
| 20260904151521 | 50 | 322 | 0.0 | 3.5 | 0.00 | 0.12 | 0.12 | 95 | 1014.2 |
| 20260904151021 | 50 | 286 | 2.6 | 3.5 | 0.00 | 0.12 | 0.12 | 95 | 1014.5 |
| 20260904150520 | 50 | 281 | 5.2 | 5.2 | 0.00 | 0.12 | 0.12 | 96 | 1014.2 |
| 20260904150015 | 50 | 298 | 2.6 | 3.5 | 0.00 | 0.12 | 0.12 | 96 | 1014.4 |
| 20260904145509 | 50 | 260 | 0.0 | 3.5 | 0.00 | 0.12 | 0.12 | 96 | 1014.2 |
| 20260904145005 | 50 | 244 | 2.6 | 4.3 | 0.00 | 0.12 | 0.12 | 96 | 1014.2 |
| 20260904144501 | 50 | 210 | 1.7 | 3.5 | 0.00 | 0.12 | 0.12 | 96 | 1013.9 |
| 20260904143956 | 50 | 180 | 0.0 | 1.7 | 0.00 | 0.12 | 0.12 | 96 | 1013.8 |
| 20260904143452 | 50 | 180 | 0.0 | 1.7 | 0.00 | 0.12 | 0.12 | 96 | 1013.5 |
| 20260904142949 | 50 | 166 | 0.0 | 0.9 | 0.00 | 0.12 | 0.12 | 96 | 1013.5 |
| 20260904142445 | 50 | 221 | 0.0 | 2.6 | 0.00 | 0.12 | 0.12 | 96 | 1013.2 |
| 20260904141944 | 50 | 73 | 1.7 | 2.6 | 0.00 | 0.12 | 0.12 | 96 | 1013.5 |
| 20260904141439 | 50 | 332 | 1.7 | 2.6 | 0.00 | 0.12 | 0.12 | 96 | 1013.5 |
| 20260904140936 | 49 | 15 | 0.0 | 0.0 | 0.00 | 0.12 | 0.12 | 96 | 1013.5 |
| 20260904140435 | 49 | 66 | 0.0 | 1.7 | 0.00 | 0.12 | 0.12 | 96 | 1013.1 |
| 20260904135935 | 49 | 90 | 0.9 | 2.6 | 0.00 | 0.12 | 0.12 | 95 | 1013.1 |
| 20260904135434 | 49 | 56 | 1.7 | 2.6 | 0.00 | 0.12 | 0.12 | 95 | 1012.9 |
| 20260904134931 | 49 | 8 | 0.0 | 1.7 | 0.00 | 0.12 | 0.12 | 95 | 1013.1 |
| 20260904134430 | 49 | 98 | 0.9 | 1.7 | 0.02 | 0.12 | 0.12 | 95 | 1013.2 |
| 20260904133925 | 49 | 101 | 2.6 | 3.5 | 0.02 | 0.12 | 0.12 | 95 | 1013.1 |
| 20260904133420 | 49 | 90 | 1.7 | 1.7 | 0.09 | 0.11 | 0.11 | 94 | 1013.1 |
| 20260904132916 | 49 | 98 | 1.7 | 2.6 | 0.12 | 0.11 | 0.11 | 94 | 1013.0 |
| 20260904132410 | 49 | 90 | 0.9 | 1.7 | 0.12 | 0.10 | 0.10 | 94 | 1013.0 |
| 20260904131910 | 50 | 114 | 0.9 | 1.7 | 0.12 | 0.09 | 0.09 | 93 | 1013.1 |
| 20260904131400 | 49 | 85 | 1.7 | 1.7 | 0.12 | 0.08 | 0.08 | 93 | 1012.9 |
| 20260904130855 | 50 | 90 | 1.7 | 1.7 | 0.17 | 0.07 | 0.07 | 92 | 1013.0 |
| 20260904130354 | 50 | 23 | 0.0 | 1.7 | 0.17 | 0.06 | 0.06 | 92 | 1012.9 |
| 20260904125849 | 50 | 183 | 0.0 | 3.5 | 0.14 | 0.04 | 0.04 | 92 | 1012.8 |
| 20260904125346 | 50 | 270 | 0.0 | 1.7 | 0.09 | 0.03 | 0.03 | 91 | 1012.9 |
| 20260904124844 | 50 | 260 | 1.7 | 2.6 | 0.02 | 0.02 | 0.02 | 90 | 1012.9 |